This is the latest recevied weather packets stored in our database for station/object KB1FPD. If no packets are shown the sender has not sent any weather packets the latest 1 day(s).
| Time | Temp. | Humidity | Pressure | Rain* | Wind** | Luminosity | Snow |
|---|---|---|---|---|---|---|---|
| 1777977631 | 13.33° C | 76% | 1011.5 hPa | 0 mm | 0.89 m/s, 179° | - | - |
| 1777977333 | 13.33° C | 75% | 1011.5 hPa | 0 mm | 0.89 m/s, 221° | - | - |
| 1777977029 | 13.89° C | 74% | 1011.4 hPa | 0 mm | 0.89 m/s, 223° | - | - |
| 1777976730 | 13.89° C | 74% | 1011.3 hPa | 0 mm | 0.89 m/s, 219° | - | - |
| 1777976427 | 13.89° C | 73% | 1011.4 hPa | 0 mm | 1.34 m/s, 196° | - | - |
| 1777976125 | 13.89° C | 73% | 1011.3 hPa | 0 mm | 1.34 m/s, 218° | - | - |
| 1777975817 | 13.89° C | 73% | 1011.3 hPa | 0 mm | 0.89 m/s, 189° | - | - |
| 1777975521 | 13.89° C | 74% | 1011.4 hPa | 0 mm | 0.89 m/s, 202° | - | - |
| 1777975216 | 13.33° C | 74% | 1011.3 hPa | 0 mm | 1.34 m/s, 191° | - | - |
| 1777974913 | 13.89° C | 74% | 1011.4 hPa | 0 mm | 0.89 m/s, 205° | - | - |
| 1777974612 | 13.89° C | 74% | 1011.3 hPa | 0 mm | 0.89 m/s, 162° | - | - |
| 1777974311 | 14.44° C | 73% | 1011.3 hPa | 0 mm | 1.34 m/s, 228° | - | - |
| 1777974012 | 14.44° C | 73% | 1011.3 hPa | 0 mm | 1.34 m/s, 211° | - | - |
| 1777973411 | 14.44° C | 72% | 1011.4 hPa | 0 mm | 1.34 m/s, 180° | - | - |
| 1777973111 | 15° C | 71% | 1011.4 hPa | 0 mm | 1.79 m/s, 177° | - | - |
| 1777972811 | 15° C | 70% | 1011.3 hPa | 0 mm | 2.24 m/s, 172° | - | - |
| 1777972512 | 15° C | 71% | 1011.3 hPa | 0 mm | 2.24 m/s, 170° | - | - |
| 1777972209 | 15° C | 70% | 1011.3 hPa | 0 mm | 1.79 m/s, 168° | - | - |
| 1777971907 | 14.44° C | 71% | 1011.2 hPa | 0 mm | 1.34 m/s, 208° | - | - |
| 1777971609 | 14.44° C | 72% | 1011.3 hPa | 0 mm | 1.79 m/s, 174° | - | - |
| 1777971307 | 14.44° C | 72% | 1011.2 hPa | 0 mm | 1.79 m/s, 242° | - | - |
| 1777971003 | 14.44° C | 73% | 1011.3 hPa | 0 mm | 1.79 m/s, 232° | - | - |
| 1777970705 | 14.44° C | 73% | 1011.2 hPa | 0 mm | 1.34 m/s, 238° | - | - |
| 1777970411 | 14.44° C | 74% | 1011.2 hPa | 0 mm | 0.89 m/s, 221° | - | - |
| 1777970103 | 14.44° C | 73% | 1011.1 hPa | 0 mm | 0.89 m/s, 244° | - | - |
* Rain latest hour (hover to see other rain measurements)
** Current wind speed in m/s (hover to see current wind gust speed)